Precipitable_Water
1.51 1.51 1.39 1.40 1.54 1.54 1.47 1.44 1.46 1.38 1.44 1.44 1.39 1.35 1.32 1.28 1.24 1.23 1.22 1.17 1.20 1.19 1.15 1.09 1.09 1.16 1.18 1.21 1.17 1.14 1.16 1.18 1.19 1.18 1.22 1.29 1.30 1.32 1.37 1.37 1.40 1.44 1.47 1.48 1.49 1.44 1.34 1.24 1.21 1.22 1.20 1.18 1.19 1.19 1.19 1.26 1.27 1.23 1.19 1.17 1.13 1.15 1.11 1.12 1.14 1.13 1.08 1.04 1.02 0.99 0.98 0.98 0.99 1.02 1.01 1.00 1.02 1.05 1.06 1.07 1.08 1.11 1.14 1.16 1.19
1.51 1.51 1.45 1.48 1.47 1.46 1.49 1.47 1.44 1.42 1.38 1.40 1.39 1.34 1.29 1.31 1.32 1.27 1.24 1.26 1.23 1.26 1.26 1.19 1.13 1.10 1.08 1.11 1.17 1.21 1.18 1.16 1.20 1.26 1.24 1.22 1.23 1.26 1.29 1.30 1.33 1.38 1.41 1.44 1.48 1.51 1.47 1.33 1.23 1.23 1.24 1.25 1.23 1.21 1.20 1.24 1.26 1.21 1.20 1.18 1.14 1.12 1.14 1.16 1.15 1.14 1.09 1.06 1.04 1.02 1.01 0.97 0.96 1.00 0.99 0.99 0.99 1.02 1.04 1.06 1.07 1.10 1.13 1.15 1.18
1.52 1.50 1.53 1.45 1.41 1.40 1.37 1.37 1.34 1.36 1.33 1.28 1.31 1.26 1.24 1.24 1.20 1.25 1.25 1.24 1.22 1.25 1.22 1.20 1.22 1.23 1.19 1.15 1.16 1.22 1.25 1.27 1.33 1.39 1.38 1.32 1.31 1.28 1.24 1.26 1.28 1.30 1.34 1.41 1.46 1.51 1.53 1.43 1.28 1.25 1.26 1.28 1.28 1.28 1.26 1.23 1.22 1.20 1.19 1.18 1.17 1.14 1.12 1.13 1.15 1.15 1.12 1.06 1.05 1.06 1.03 1.01 0.98 0.98 0.97 0.98 0.96 0.99 1.02 1.04 1.07 1.09 1.11 1.14 1.16
1.55 1.47 1.40 1.37 1.33 1.30 1.29 1.33 1.33 1.32 1.32 1.28 1.25 1.30 1.27 1.25 1.23 1.27 1.26 1.20 1.19 1.21 1.25 1.20 1.18 1.19 1.20 1.18 1.16 1.18 1.22 1.29 1.30 1.31 1.40 1.39 1.38 1.40 1.35 1.26 1.26 1.27 1.27 1.30 1.35 1.46 1.58 1.54 1.40 1.30 1.28 1.27 1.31 1.34 1.32 1.26 1.25 1.22 1.20 1.20 1.19 1.16 1.13 1.11 1.13 1.14 1.12 1.07 1.07 1.06 1.06 1.03 0.99 0.96 0.94 0.97 0.95 0.94 1.01 1.02 1.06 1.09 1.10 1.13 1.13
1.47 1.39 1.30 1.37 1.33 1.27 1.30 1.31 1.29 1.31 1.28 1.28 1.25 1.24 1.23 1.22 1.24 1.26 1.24 1.26 1.24 1.21 1.25 1.27 1.22 1.24 1.25 1.21 1.23 1.25 1.24 1.23 1.22 1.26 1.32 1.39 1.42 1.47 1.43 1.44 1.36 1.29 1.26 1.27 1.33 1.47 1.55 1.59 1.51 1.40 1.35 1.31 1.31 1.35 1.39 1.35 1.30 1.26 1.25 1.23 1.21 1.17 1.15 1.10 1.12 1.14 1.12 1.08 1.06 1.06 1.06 1.04 1.01 0.98 0.93 0.95 0.94 0.94 0.98 1.02 1.04 1.07 1.10 1.12 1.11
1.39 1.30 1.27 1.29 1.28 1.23 1.29 1.25 1.29 1.28 1.24 1.25 1.23 1.24 1.25 1.23 1.20 1.18 1.17 1.16 1.15 1.17 1.18 1.19 1.26 1.26 1.25 1.27 1.23 1.22 1.24 1.24 1.22 1.23 1.28 1.32 1.39 1.46 1.50 1.53 1.53 1.41 1.34 1.30 1.29 1.38 1.44 1.53 1.57 1.48 1.43 1.38 1.35 1.36 1.41 1.43 1.39 1.32 1.28 1.26 1.23 1.19 1.16 1.12 1.10 1.11 1.12 1.09 1.05 1.07 1.07 1.05 1.01 1.00 0.95 0.94 0.94 0.92 0.96 0.99 1.03 1.06 1.09 1.10 1.09
1.41 1.30 1.26 1.26 1.23 1.28 1.26 1.31 1.26 1.20 1.18 1.24 1.22 1.18 1.19 1.17 1.16 1.11 1.10 1.10 1.13 1.17 1.19 1.17 1.19 1.20 1.29 1.23 1.20 1.23 1.25 1.25 1.21 1.21 1.27 1.29 1.31 1.37 1.39 1.39 1.50 1.54 1.47 1.38 1.34 1.36 1.40 1.49 1.56 1.56 1.52 1.48 1.44 1.41 1.41 1.45 1.46 1.42 1.34 1.30 1.25 1.21 1.19 1.15 1.11 1.09 1.13 1.10 1.05 1.05 1.05 1.04 1.01 1.01 0.97 0.95 0.95 0.92 0.93 0.97 1.01 1.06 1.09 1.10 1.06
1.35 1.33 1.33 1.39 1.40 1.31 1.32 1.29 1.24 1.20 1.20 1.21 1.19 1.14 1.15 1.14 1.16 1.12 1.02 1.01 1.04 1.06 1.12 1.11 1.13 1.14 1.26 1.24 1.25 1.22 1.17 1.19 1.20 1.22 1.28 1.29 1.35 1.35 1.37 1.43 1.51 1.53 1.52 1.44 1.37 1.35 1.34 1.37 1.48 1.56 1.58 1.54 1.51 1.47 1.46 1.47 1.49 1.51 1.43 1.36 1.30 1.25 1.22 1.18 1.12 1.08 1.12 1.11 1.07 1.06 1.05 1.04 1.03 1.01 0.99 0.96 0.95 0.92 0.91 0.95 1.02 1.06 1.10 1.09 1.04
1.36 1.40 1.33 1.37 1.39 1.36 1.35 1.27 1.30 1.23 1.19 1.18 1.17 1.19 1.15 1.13 1.11 1.11 1.06 1.00 1.02 1.04 1.07 1.10 1.09 1.10 1.15 1.16 1.16 1.17 1.15 1.16 1.17 1.21 1.28 1.27 1.28 1.30 1.34 1.36 1.43 1.48 1.55 1.52 1.45 1.43 1.41 1.40 1.49 1.56 1.56 1.56 1.55 1.54 1.50 1.50 1.53 1.54 1.50 1.42 1.36 1.32 1.26 1.20 1.14 1.08 1.11 1.12 1.10 1.08 1.05 1.05 1.05 1.03 1.00 0.98 0.95 0.93 0.91 0.94 1.02 1.06 1.10 1.08 1.03
1.38 1.42 1.34 1.36 1.39 1.37 1.33 1.35 1.34 1.28 1.25 1.25 1.24 1.23 1.15 1.09 1.02 1.04 1.04 1.02 0.99 1.00 1.01 1.07 1.11 1.13 1.15 1.15 1.13 1.15 1.17 1.17 1.20 1.23 1.22 1.24 1.29 1.31 1.35 1.44 1.46 1.44 1.50 1.56 1.53 1.49 1.46 1.45 1.48 1.54 1.58 1.58 1.59 1.60 1.57 1.54 1.54 1.57 1.55 1.50 1.42 1.36 1.31 1.24 1.16 1.09 1.11 1.12 1.11 1.10 1.08 1.06 1.07 1.04 1.03 0.99 0.96 0.93 0.90 0.94 1.01 1.06 1.09 1.08 1.03
1.51 1.40 1.33 1.36 1.37 1.39 1.43 1.31 1.32 1.28 1.25 1.21 1.17 1.10 1.05 1.03 0.98 0.98 1.08 1.09 1.05 1.06 1.08 1.11 1.12 1.09 1.10 1.11 1.13 1.14 1.18 1.19 1.20 1.22 1.25 1.27 1.31 1.36 1.40 1.38 1.40 1.44 1.45 1.50 1.58 1.57 1.50 1.51 1.51 1.56 1.61 1.58 1.54 1.55 1.59 1.57 1.55 1.57 1.58 1.57 1.49 1.43 1.36 1.29 1.21 1.12 1.10 1.12 1.11 1.11 1.12 1.09 1.09 1.06 1.05 1.01 1.00 0.95 0.90 0.95 1.01 1.06 1.09 1.06 1.02
1.41 1.42 1.41 1.37 1.31 1.34 1.27 1.28 1.37 1.28 1.15 1.10 1.05 1.01 0.98 0.97 1.00 1.04 1.05 1.10 1.13 1.13 1.15 1.15 1.12 1.09 1.06 1.10 1.14 1.16 1.17 1.19 1.21 1.24 1.30 1.32 1.33 1.35 1.35 1.40 1.41 1.42 1.48 1.51 1.49 1.53 1.56 1.54 1.51 1.48 1.51 1.57 1.59 1.55 1.57 1.58 1.57 1.58 1.59 1.58 1.56 1.50 1.43 1.35 1.25 1.16 1.11 1.10 1.12 1.12 1.14 1.12 1.11 1.07 1.07 1.04 1.02 0.99 0.92 0.96 1.02 1.08 1.08 1.05 1.00
1.45 1.33 1.31 1.32 1.31 1.27 1.24 1.20 1.20 1.14 1.09 1.01 1.00 1.01 1.04 1.07 1.08 1.08 1.06 1.06 1.07 1.12 1.14 1.12 1.03 1.01 1.05 1.02 1.01 1.11 1.15 1.18 1.21 1.25 1.28 1.29 1.28 1.25 1.28 1.29 1.33 1.36 1.43 1.49 1.54 1.55 1.55 1.49 1.47 1.49 1.47 1.47 1.56 1.58 1.55 1.54 1.57 1.60 1.61 1.59 1.55 1.54 1.51 1.43 1.32 1.19 1.16 1.13 1.11 1.13 1.14 1.14 1.13 1.10 1.08 1.05 1.05 1.01 0.96 1.00 1.06 1.09 1.08 1.04 0.99
1.25 1.26 1.23 1.22 1.20 1.19 1.16 1.11 1.09 1.05 1.01 1.01 1.00 1.02 1.04 1.04 1.04 1.03 1.13 1.04 1.02 1.10 1.13 1.09 0.97 0.89 0.83 0.82 0.91 1.04 1.08 1.13 1.18 1.22 1.22 1.22 1.23 1.23 1.23 1.23 1.24 1.26 1.32 1.37 1.41 1.51 1.58 1.50 1.56 1.53 1.50 1.53 1.55 1.59 1.61 1.59 1.57 1.58 1.62 1.61 1.58 1.55 1.55 1.50 1.41 1.25 1.16 1.18 1.12 1.11 1.13 1.15 1.15 1.12 1.09 1.08 1.07 1.04 1.00 1.04 1.07 1.09 1.08 1.03 0.98
1.19 1.18 1.17 1.16 1.14 1.11 1.06 1.05 1.01 0.97 0.93 0.93 0.96 0.98 1.00 0.98 0.99 0.93 0.91 0.99 1.00 1.09 1.06 1.07 0.91 1.00 0.99 0.85 0.77 0.73 0.91 1.07 1.13 1.09 1.11 1.14 1.19 1.17 1.19 1.21 1.21 1.25 1.28 1.30 1.33 1.37 1.41 1.44 1.46 1.48 1.51 1.54 1.59 1.62 1.58 1.55 1.56 1.57 1.59 1.62 1.60 1.55 1.52 1.52 1.45 1.35 1.20 1.18 1.13 1.10 1.12 1.15 1.16 1.14 1.11 1.11 1.09 1.07 1.04 1.06 1.08 1.09 1.08 1.02 0.96
1.15 1.12 1.13 1.13 1.10 1.05 1.03 0.99 0.95 0.93 0.90 0.87 0.90 0.92 0.95 0.94 0.95 0.94 0.91 0.79 0.85 0.92 1.04 1.05 1.02 0.95 0.75 0.79 0.83 0.81 0.68 0.81 0.85 0.97 1.10 1.12 1.14 1.11 1.14 1.16 1.20 1.25 1.28 1.24 1.28 1.33 1.37 1.39 1.40 1.42 1.47 1.54 1.58 1.59 1.56 1.57 1.58 1.60 1.60 1.61 1.61 1.54 1.51 1.51 1.48 1.41 1.30 1.20 1.14 1.09 1.12 1.15 1.17 1.16 1.14 1.13 1.11 1.09 1.09 1.08 1.06 1.08 1.07 1.03 0.97
1.10 1.09 1.08 1.06 1.06 1.04 1.00 0.96 0.93 0.92 0.91 0.89 0.87 0.88 0.90 0.90 0.92 0.89 0.87 0.81 0.76 0.82 0.94 1.02 1.01 1.05 0.97 0.84 0.77 0.67 0.67 0.76 0.81 0.84 1.06 1.02 1.09 1.12 1.13 1.15 1.15 1.18 1.21 1.22 1.28 1.33 1.38 1.39 1.40 1.42 1.42 1.44 1.46 1.51 1.54 1.57 1.58 1.60 1.63 1.65 1.65 1.60 1.57 1.55 1.50 1.45 1.36 1.24 1.16 1.12 1.11 1.14 1.18 1.17 1.15 1.14 1.12 1.11 1.12 1.12 1.09 1.09 1.07 1.03 0.97
1.06 1.04 1.03 1.02 0.98 0.95 0.92 0.89 0.90 0.90 0.86 0.86 0.88 0.85 0.84 0.83 0.85 0.83 0.82 0.89 0.81 0.78 0.78 0.95 0.98 1.01 1.05 1.01 0.95 0.81 0.74 0.79 0.81 0.64 0.88 1.03 1.04 1.08 1.08 1.12 1.13 1.11 1.13 1.15 1.19 1.26 1.35 1.35 1.36 1.34 1.37 1.37 1.39 1.42 1.46 1.49 1.56 1.58 1.58 1.58 1.59 1.59 1.60 1.56 1.53 1.48 1.41 1.32 1.21 1.18 1.15 1.13 1.17 1.17 1.15 1.14 1.13 1.13 1.13 1.15 1.13 1.11 1.07 1.03 0.96
1.01 1.00 0.96 0.94 0.93 0.90 0.89 0.87 0.86 0.86 0.83 0.81 0.80 0.79 0.79 0.81 0.83 0.83 0.83 0.84 0.83 0.74 0.75 0.77 0.86 0.96 0.99 1.01 1.01 1.02 1.02 0.88 0.74 0.83 0.71 0.81 0.95 0.99 1.01 1.07 1.08 1.07 1.05 1.07 1.12 1.15 1.21 1.29 1.31 1.31 1.31 1.35 1.36 1.36 1.38 1.39 1.44 1.51 1.56 1.57 1.56 1.59 1.59 1.57 1.53 1.51 1.42 1.38 1.28 1.25 1.28 1.22 1.15 1.15 1.14 1.12 1.13 1.16 1.16 1.16 1.15 1.13 1.08 1.03 0.96
0.96 0.92 0.91 0.89 0.88 0.86 0.85 0.83 0.83 0.81 0.80 0.77 0.77 0.78 0.78 0.79 0.80 0.81 0.82 0.81 0.80 0.75 0.72 0.77 0.70 0.72 0.87 0.87 0.89 0.97 1.00 1.00 1.01 0.86 0.80 0.72 0.70 0.89 1.00 1.05 1.04 1.02 1.03 1.05 1.07 1.08 1.10 1.17 1.21 1.24 1.28 1.33 1.37 1.37 1.37 1.38 1.40 1.44 1.45 1.48 1.51 1.55 1.58 1.58 1.54 1.51 1.45 1.40 1.36 1.29 1.35 1.31 1.23 1.16 1.14 1.10 1.12 1.18 1.20 1.19 1.19 1.15 1.09 1.04 0.98
0.90 0.87 0.87 0.87 0.85 0.82 0.82 0.81 0.79 0.79 0.78 0.77 0.77 0.77 0.75 0.72 0.72 0.74 0.75 0.76 0.76 0.77 0.75 0.73 0.74 0.73 0.73 0.74 0.79 0.81 0.82 0.86 0.91 0.94 0.81 0.71 0.68 0.72 0.76 0.92 0.97 0.99 1.03 1.07 1.09 1.10 1.10 1.11 1.14 1.17 1.22 1.24 1.28 1.32 1.37 1.40 1.42 1.42 1.41 1.42 1.45 1.49 1.54 1.56 1.56 1.53 1.47 1.40 1.37 1.32 1.36 1.37 1.32 1.28 1.18 1.12 1.12 1.18 1.21 1.21 1.20 1.17 1.10 1.06 1.00
0.86 0.84 0.84 0.85 0.82 0.81 0.80 0.79 0.77 0.76 0.74 0.73 0.71 0.71 0.73 0.71 0.73 0.74 0.77 0.73 0.76 0.75 0.73 0.73 0.74 0.75 0.76 0.74 0.71 0.70 0.69 0.68 0.74 0.76 0.76 0.80 0.70 0.69 0.76 0.76 0.72 0.84 0.97 1.03 1.09 1.11 1.13 1.13 1.12 1.14 1.16 1.18 1.21 1.24 1.28 1.32 1.36 1.40 1.39 1.38 1.40 1.44 1.47 1.51 1.57 1.56 1.51 1.42 1.37 1.33 1.36 1.48 1.48 1.44 1.32 1.19 1.13 1.15 1.20 1.21 1.21 1.19 1.12 1.05 1.01
0.83 0.82 0.82 0.83 0.81 0.79 0.77 0.76 0.75 0.75 0.74 0.73 0.72 0.73 0.73 0.73 0.76 0.78 0.76 0.74 0.72 0.72 0.72 0.74 0.73 0.73 0.73 0.74 0.71 0.70 0.67 0.63 0.64 0.66 0.67 0.65 0.63 0.63 0.69 0.76 0.77 0.74 0.85 0.98 1.04 1.12 1.12 1.12 1.11 1.12 1.15 1.18 1.22 1.26 1.28 1.29 1.30 1.33 1.37 1.39 1.40 1.40 1.42 1.45 1.48 1.51 1.53 1.49 1.40 1.31 1.35 1.41 1.43 1.49 1.49 1.40 1.25 1.16 1.17 1.21 1.22 1.21 1.14 1.05 1.01
0.79 0.79 0.79 0.79 0.77 0.76 0.77 0.76 0.74 0.74 0.72 0.73 0.74 0.73 0.73 0.76 0.77 0.74 0.73 0.72 0.71 0.69 0.70 0.69 0.70 0.71 0.71 0.72 0.72 0.73 0.71 0.69 0.70 0.72 0.70 0.67 0.67 0.64 0.65 0.70 0.68 0.74 0.83 0.89 0.94 0.95 0.99 1.02 1.09 1.11 1.16 1.20 1.23 1.24 1.29 1.33 1.32 1.27 1.29 1.35 1.39 1.41 1.40 1.41 1.44 1.47 1.51 1.52 1.48 1.38 1.31 1.38 1.42 1.48 1.51 1.50 1.42 1.29 1.21 1.21 1.22 1.22 1.17 1.07 1.01
0.75 0.74 0.75 0.75 0.75 0.73 0.73 0.72 0.72 0.73 0.72 0.72 0.72 0.72 0.72 0.73 0.72 0.69 0.70 0.67 0.67 0.67 0.67 0.67 0.68 0.66 0.66 0.71 0.71 0.70 0.71 0.77 0.78 0.75 0.75 0.74 0.69 0.62 0.64 0.69 0.61 0.61 0.67 0.74 0.73 0.83 0.91 0.94 1.01 1.16 1.22 1.24 1.28 1.29 1.26 1.33 1.37 1.30 1.23 1.24 1.31 1.37 1.39 1.39 1.40 1.45 1.50 1.52 1.51 1.47 1.36 1.33 1.39 1.43 1.47 1.49 1.45 1.36 1.32 1.27 1.23 1.22 1.19 1.07 1.01
0.73 0.72 0.75 0.76 0.74 0.74 0.73 0.71 0.73 0.73 0.72 0.71 0.72 0.70 0.72 0.70 0.70 0.68 0.68 0.68 0.69 0.69 0.69 0.69 0.70 0.70 0.71 0.68 0.69 0.70 0.71 0.74 0.72 0.71 0.67 0.64 0.60 0.59 0.59 0.61 0.63 0.59 0.64 0.65 0.72 0.68 0.71 0.86 0.99 1.08 1.15 1.21 1.28 1.33 1.28 1.25 1.34 1.32 1.26 1.22 1.23 1.28 1.35 1.38 1.40 1.41 1.45 1.48 1.50 1.49 1.43 1.35 1.34 1.42 1.47 1.47 1.42 1.37 1.32 1.34 1.27 1.21 1.18 1.08 0.99
0.74 0.74 0.76 0.75 0.74 0.73 0.72 0.71 0.71 0.70 0.69 0.69 0.69 0.70 0.72 0.70 0.69 0.68 0.68 0.68 0.68 0.68 0.68 0.67 0.67 0.67 0.68 0.67 0.67 0.69 0.71 0.74 0.73 0.71 0.72 0.70 0.68 0.66 0.62 0.54 0.53 0.57 0.56 0.61 0.62 0.62 0.65 0.74 0.87 0.96 1.09 1.16 1.23 1.31 1.36 1.43 1.44 1.43 1.37 1.25 1.19 1.21 1.26 1.34 1.38 1.39 1.43 1.49 1.51 1.49 1.48 1.40 1.34 1.36 1.40 1.47 1.48 1.49 1.41 1.35 1.36 1.27 1.18 1.11 1.00
0.75 0.75 0.73 0.72 0.72 0.72 0.70 0.68 0.68 0.67 0.67 0.67 0.68 0.68 0.68 0.65 0.64 0.63 0.58 0.61 0.60 0.60 0.62 0.62 0.62 0.61 0.62 0.63 0.63 0.64 0.71 0.69 0.67 0.67 0.69 0.70 0.71 0.71 0.68 0.63 0.54 0.46 0.53 0.52 0.55 0.56 0.68 0.65 0.71 0.84 0.95 1.04 1.15 1.21 1.32 1.40 1.43 1.40 1.39 1.30 1.23 1.21 1.21 1.26 1.33 1.38 1.42 1.46 1.49 1.49 1.52 1.48 1.39 1.35 1.36 1.42 1.45 1.48 1.46 1.38 1.37 1.37 1.25 1.13 1.06
0.74 0.75 0.73 0.72 0.71 0.70 0.67 0.67 0.67 0.67 0.66 0.66 0.65 0.62 0.61 0.58 0.57 0.56 0.52 0.55 0.56 0.56 0.56 0.56 0.59 0.59 0.58 0.59 0.59 0.61 0.62 0.60 0.59 0.58 0.58 0.60 0.60 0.59 0.60 0.56 0.55 0.48 0.43 0.43 0.47 0.48 0.53 0.64 0.59 0.66 0.78 0.86 0.96 1.07 1.16 1.20 1.24 1.49 1.61 1.44 1.33 1.23 1.21 1.22 1.26 1.32 1.37 1.42 1.49 1.52 1.54 1.53 1.46 1.39 1.36 1.39 1.44 1.47 1.47 1.43 1.36 1.38 1.35 1.22 1.10
0.76 0.73 0.72 0.70 0.67 0.67 0.65 0.63 0.63 0.61 0.59 0.60 0.60 0.58 0.56 0.54 0.53 0.52 0.51 0.52 0.51 0.53 0.54 0.56 0.56 0.57 0.57 0.56 0.56 0.55 0.53 0.52 0.52 0.53 0.52 0.52 0.50 0.49 0.48 0.49 0.50 0.44 0.43 0.39 0.39 0.48 0.50 0.58 0.62 0.60 0.68 0.71 0.76 0.85 0.98 1.06 1.14 1.18 1.34 1.41 1.42 1.35 1.23 1.20 1.23 1.26 1.28 1.33 1.41 1.49 1.53 1.55 1.54 1.44 1.40 1.38 1.44 1.44 1.42 1.42 1.38 1.38 1.39 1.33 1.16
0.73 0.71 0.67 0.65 0.63 0.60 0.59 0.56 0.54 0.54 0.55 0.56 0.58 0.55 0.55 0.53 0.51 0.48 0.49 0.49 0.49 0.49 0.50 0.50 0.52 0.51 0.49 0.48 0.50 0.48 0.48 0.48 0.48 0.49 0.49 0.48 0.46 0.45 0.44 0.45 0.44 0.45 0.43 0.41 0.34 0.38 0.49 0.45 0.49 0.57 0.58 0.63 0.68 0.71 0.74 0.83 0.95 1.08 1.14 1.18 1.23 1.37 1.35 1.23 1.21 1.24 1.26 1.28 1.35 1.42 1.47 1.52 1.53 1.50 1.43 1.41 1.43 1.46 1.44 1.41 1.39 1.36 1.37 1.36 1.27
0.69 0.67 0.64 0.60 0.58 0.53 0.50 0.50 0.49 0.49 0.50 0.52 0.54 0.54 0.53 0.51 0.48 0.47 0.47 0.48 0.47 0.47 0.47 0.50 0.49 0.47 0.46 0.45 0.46 0.44 0.45 0.44 0.43 0.44 0.44 0.44 0.43 0.42 0.42 0.41 0.41 0.42 0.42 0.39 0.34 0.31 0.39 0.43 0.46 0.46 0.51 0.54 0.60 0.59 0.62 0.69 0.78 0.91 1.03 1.04 1.07 1.24 1.32 1.29 1.21 1.21 1.25 1.27 1.32 1.39 1.44 1.46 1.48 1.53 1.50 1.43 1.41 1.43 1.44 1.42 1.39 1.36 1.35 1.34 1.32
0.66 0.63 0.59 0.55 0.51 0.49 0.47 0.45 0.45 0.45 0.46 0.47 0.50 0.51 0.50 0.49 0.48 0.47 0.47 0.46 0.45 0.45 0.44 0.45 0.46 0.44 0.43 0.43 0.43 0.43 0.44 0.41 0.40 0.41 0.40 0.40 0.40 0.40 0.40 0.39 0.38 0.39 0.39 0.36 0.32 0.31 0.34 0.41 0.43 0.41 0.44 0.47 0.46 0.54 0.57 0.62 0.68 0.79 0.94 1.03 1.06 1.11 1.20 1.30 1.28 1.21 1.20 1.24 1.29 1.33 1.40 1.47 1.49 1.51 1.54 1.47 1.42 1.41 1.43 1.43 1.42 1.41 1.37 1.33 1.32
0.63 0.58 0.55 0.52 0.49 0.45 0.43 0.42 0.42 0.42 0.43 0.44 0.46 0.48 0.47 0.47 0.45 0.46 0.44 0.43 0.43 0.42 0.41 0.41 0.42 0.42 0.41 0.40 0.40 0.41 0.42 0.39 0.39 0.38 0.38 0.38 0.38 0.37 0.37 0.37 0.36 0.36 0.40 0.37 0.34 0.33 0.29 0.34 0.36 0.41 0.39 0.44 0.41 0.47 0.50 0.52 0.56 0.64 0.73 0.87 1.00 1.12 1.13 1.20 1.27 1.27 1.21 1.20 1.25 1.30 1.32 1.40 1.49 1.50 1.52 1.55 1.47 1.43 1.42 1.43 1.42 1.43 1.41 1.38 1.34
0.58 0.54 0.51 0.48 0.46 0.44 0.42 0.41 0.40 0.39 0.40 0.42 0.45 0.46 0.46 0.45 0.43 0.43 0.42 0.42 0.41 0.39 0.38 0.38 0.39 0.39 0.38 0.37 0.38 0.39 0.40 0.38 0.38 0.38 0.39 0.38 0.38 0.36 0.36 0.37 0.36 0.37 0.39 0.40 0.37 0.32 0.31 0.31 0.36 0.37 0.39 0.39 0.39 0.41 0.47 0.53 0.56 0.60 0.64 0.72 0.84 0.96 1.02 1.09 1.15 1.24 1.27 1.23 1.22 1.28 1.30 1.31 1.39 1.49 1.52 1.54 1.55 1.42 1.43 1.43 1.43 1.41 1.37 1.38 1.35
0.53 0.51 0.49 0.46 0.44 0.42 0.40 0.39 0.39 0.38 0.38 0.40 0.42 0.44 0.45 0.45 0.42 0.41 0.40 0.41 0.40 0.39 0.37 0.38 0.38 0.38 0.37 0.36 0.37 0.39 0.39 0.37 0.38 0.37 0.38 0.38 0.37 0.37 0.36 0.37 0.37 0.37 0.38 0.39 0.40 0.37 0.35 0.32 0.34 0.36 0.41 0.41 0.40 0.43 0.46 0.50 0.54 0.57 0.62 0.70 0.86 0.94 1.03 1.07 1.10 1.15 1.20 1.23 1.23 1.25 1.30 1.31 1.33 1.43 1.50 1.51 1.56 1.52 1.43 1.44 1.45 1.44 1.38 1.36 1.36
0.54 0.51 0.47 0.45 0.42 0.40 0.38 0.37 0.37 0.36 0.37 0.39 0.40 0.42 0.44 0.46 0.41 0.41 0.40 0.40 0.39 0.37 0.37 0.38 0.38 0.37 0.37 0.37 0.38 0.38 0.38 0.37 0.36 0.36 0.38 0.37 0.38 0.37 0.37 0.38 0.38 0.39 0.40 0.40 0.40 0.40 0.38 0.35 0.35 0.39 0.42 0.44 0.46 0.45 0.46 0.44 0.47 0.52 0.58 0.61 0.68 0.83 1.00 1.12 1.10 1.11 1.15 1.21 1.26 1.25 1.29 1.31 1.32 1.38 1.47 1.49 1.50 1.53 1.45 1.43 1.45 1.44 1.41 1.39 1.38
0.49 0.47 0.45 0.45 0.43 0.39 0.38 0.37 0.37 0.37 0.37 0.38 0.39 0.40 0.41 0.44 0.43 0.40 0.39 0.37 0.37 0.37 0.37 0.37 0.36 0.37 0.36 0.37 0.38 0.38 0.38 0.36 0.36 0.37 0.38 0.37 0.38 0.37 0.38 0.39 0.40 0.40 0.40 0.40 0.41 0.41 0.40 0.39 0.39 0.37 0.41 0.42 0.43 0.44 0.46 0.47 0.45 0.43 0.47 0.55 0.66 0.79 0.93 1.00 1.03 1.09 1.13 1.17 1.23 1.27 1.27 1.30 1.32 1.35 1.42 1.47 1.50 1.51 1.51 1.43 1.44 1.45 1.42 1.41 1.39
0.48 0.46 0.46 0.44 0.43 0.41 0.38 0.36 0.36 0.36 0.37 0.37 0.37 0.39 0.41 0.41 0.42 0.42 0.38 0.37 0.36 0.37 0.37 0.36 0.36 0.36 0.36 0.37 0.37 0.38 0.37 0.37 0.37 0.37 0.38 0.37 0.37 0.38 0.39 0.40 0.41 0.41 0.41 0.41 0.42 0.41 0.41 0.40 0.41 0.42 0.42 0.44 0.45 0.41 0.44 0.47 0.47 0.47 0.46 0.48 0.49 0.61 0.73 0.81 0.90 1.05 1.13 1.17 1.24 1.27 1.26 1.28 1.31 1.34 1.36 1.40 1.46 1.49 1.51 1.51 1.44 1.46 1.46 1.43 1.40
0.50 0.48 0.46 0.44 0.43 0.41 0.38 0.36 0.36 0.37 0.37 0.38 0.39 0.39 0.40 0.40 0.41 0.42 0.38 0.35 0.35 0.35 0.35 0.35 0.35 0.35 0.35 0.36 0.37 0.38 0.38 0.39 0.39 0.39 0.39 0.37 0.38 0.38 0.41 0.42 0.42 0.42 0.41 0.42 0.42 0.41 0.40 0.40 0.40 0.41 0.42 0.41 0.42 0.45 0.48 0.47 0.43 0.41 0.45 0.49 0.47 0.50 0.60 0.77 0.85 0.93 1.11 1.19 1.22 1.26 1.26 1.28 1.32 1.35 1.37 1.39 1.43 1.47 1.48 1.51 1.46 1.44 1.46 1.45 1.43
0.51 0.48 0.46 0.43 0.41 0.39 0.39 0.37 0.36 0.37 0.38 0.38 0.39 0.38 0.37 0.37 0.39 0.40 0.38 0.35 0.34 0.34 0.34 0.34 0.34 0.34 0.35 0.36 0.38 0.39 0.39 0.40 0.40 0.40 0.41 0.42 0.40 0.39 0.41 0.43 0.43 0.42 0.42 0.42 0.42 0.41 0.40 0.40 0.40 0.42 0.41 0.41 0.42 0.42 0.41 0.41 0.41 0.41 0.44 0.45 0.47 0.54 0.60 0.64 0.74 0.91 1.04 1.08 1.17 1.21 1.19 1.21 1.24 1.26 1.29 1.31 1.39 1.44 1.47 1.49 1.44 1.43 1.45 1.46 1.44
0.51 0.49 0.46 0.43 0.40 0.38 0.37 0.37 0.37 0.38 0.39 0.40 0.40 0.38 0.38 0.37 0.38 0.39 0.39 0.35 0.34 0.33 0.33 0.32 0.33 0.33 0.34 0.35 0.37 0.40 0.38 0.38 0.38 0.39 0.40 0.42 0.44 0.45 0.45 0.45 0.45 0.44 0.43 0.43 0.42 0.42 0.41 0.39 0.39 0.40 0.39 0.39 0.42 0.43 0.43 0.45 0.48 0.49 0.47 0.45 0.40 0.45 0.52 0.56 0.64 0.80 0.97 1.07 1.11 1.09 1.14 1.23 1.22 1.21 1.25 1.25 1.40 1.46 1.42 1.42 1.42 1.39 1.41 1.43 1.44
0.49 0.49 0.46 0.42 0.39 0.39 0.37 0.37 0.37 0.37 0.39 0.39 0.38 0.37 0.36 0.37 0.37 0.37 0.37 0.35 0.35 0.34 0.32 0.32 0.31 0.31 0.32 0.35 0.37 0.39 0.38 0.38 0.37 0.37 0.39 0.41 0.43 0.44 0.46 0.48 0.49 0.48 0.45 0.44 0.44 0.44 0.42 0.41 0.41 0.41 0.41 0.40 0.43 0.46 0.46 0.47 0.48 0.49 0.48 0.47 0.43 0.41 0.43 0.45 0.46 0.62 0.90 1.04 1.07 1.08 1.12 1.24 1.24 1.16 1.19 1.20 1.33 1.41 1.43 1.41 1.42 1.38 1.37 1.40 1.41
0.50 0.51 0.48 0.45 0.42 0.40 0.39 0.37 0.36 0.36 0.37 0.38 0.36 0.35 0.35 0.36 0.37 0.38 0.38 0.35 0.34 0.34 0.33 0.32 0.31 0.30 0.31 0.34 0.37 0.38 0.38 0.38 0.37 0.37 0.38 0.40 0.42 0.43 0.45 0.47 0.49 0.50 0.52 0.50 0.46 0.44 0.44 0.43 0.42 0.43 0.44 0.43 0.45 0.48 0.48 0.49 0.48 0.48 0.50 0.50 0.46 0.42 0.41 0.43 0.47 0.49 0.70 0.97 1.01 1.07 1.11 1.24 1.26 1.21 1.16 1.20 1.25 1.33 1.40 1.42 1.42 1.41 1.40 1.38 1.40
0.50 0.49 0.50 0.49 0.45 0.43 0.39 0.35 0.34 0.34 0.35 0.36 0.35 0.34 0.34 0.35 0.37 0.39 0.38 0.36 0.34 0.33 0.33 0.33 0.31 0.30 0.30 0.33 0.35 0.37 0.38 0.37 0.37 0.37 0.37 0.39 0.41 0.42 0.44 0.46 0.49 0.50 0.51 0.52 0.54 0.53 0.52 0.49 0.47 0.46 0.48 0.48 0.48 0.50 0.54 0.53 0.55 0.49 0.49 0.49 0.49 0.46 0.45 0.44 0.46 0.53 0.62 0.90 1.01 1.06 1.07 1.18 1.23 1.18 1.14 1.21 1.29 1.32 1.36 1.43 1.47 1.45 1.42 1.39 1.38
0.49 0.51 0.52 0.49 0.44 0.41 0.38 0.34 0.33 0.32 0.32 0.34 0.34 0.34 0.35 0.36 0.38 0.39 0.37 0.37 0.35 0.32 0.33 0.33 0.32 0.30 0.30 0.32 0.33 0.34 0.35 0.35 0.36 0.35 0.37 0.39 0.40 0.41 0.43 0.45 0.47 0.49 0.51 0.53 0.54 0.56 0.57 0.55 0.52 0.49 0.53 0.56 0.52 0.54 0.58 0.60 0.56 0.52 0.51 0.49 0.52 0.48 0.45 0.44 0.50 0.55 0.63 0.87 0.93 0.98 0.99 1.11 1.19 1.18 1.12 1.17 1.25 1.26 1.28 1.33 1.42 1.46 1.45 1.43 1.39
0.49 0.50 0.50 0.47 0.44 0.40 0.37 0.34 0.31 0.30 0.29 0.30 0.32 0.34 0.35 0.37 0.38 0.38 0.35 0.35 0.34 0.33 0.33 0.34 0.33 0.31 0.31 0.32 0.33 0.33 0.34 0.34 0.35 0.35 0.35 0.37 0.39 0.40 0.41 0.43 0.46 0.48 0.50 0.52 0.55 0.57 0.58 0.59 0.59 0.58 0.59 0.60 0.59 0.60 0.63 0.66 0.64 0.62 0.60 0.57 0.58 0.57 0.54 0.55 0.55 0.59 0.65 0.84 0.96 0.98 0.89 1.05 1.19 1.13 1.13 1.18 1.22 1.22 1.26 1.29 1.30 1.38 1.44 1.44 1.41
0.49 0.49 0.50 0.49 0.46 0.41 0.37 0.33 0.29 0.26 0.27 0.28 0.30 0.32 0.34 0.36 0.38 0.38 0.35 0.31 0.32 0.32 0.32 0.33 0.33 0.33 0.32 0.31 0.32 0.32 0.32 0.33 0.34 0.34 0.35 0.36 0.37 0.39 0.38 0.40 0.42 0.46 0.50 0.55 0.59 0.62 0.63 0.64 0.64 0.63 0.62 0.62 0.65 0.67 0.68 0.68 0.67 0.67 0.67 0.68 0.67 0.63 0.56 0.49 0.46 0.55 0.63 0.80 0.98 0.99 0.97 1.01 1.16 1.12 1.14 1.23 1.23 1.20 1.26 1.28 1.29 1.32 1.37 1.40 1.40
0.46 0.45 0.45 0.44 0.43 0.41 0.37 0.33 0.27 0.25 0.25 0.26 0.27 0.29 0.31 0.33 0.34 0.35 0.34 0.33 0.31 0.30 0.31 0.32 0.33 0.33 0.33 0.32 0.30 0.30 0.31 0.31 0.32 0.33 0.34 0.35 0.34 0.35 0.37 0.37 0.40 0.43 0.47 0.53 0.58 0.62 0.64 0.67 0.67 0.67 0.68 0.70 0.71 0.71 0.71 0.71 0.69 0.69 0.68 0.63 0.60 0.60 0.54 0.47 0.48 0.53 0.60 0.81 0.98 1.06 1.05 1.01 1.11 1.11 1.10 1.16 1.19 1.17 1.19 1.23 1.29 1.34 1.35 1.36 1.36
0.44 0.40 0.38 0.36 0.35 0.35 0.34 0.31 0.29 0.25 0.24 0.25 0.25 0.25 0.27 0.28 0.30 0.31 0.32 0.31 0.32 0.31 0.30 0.30 0.30 0.33 0.33 0.31 0.29 0.28 0.28 0.29 0.30 0.31 0.32 0.33 0.33 0.33 0.34 0.35 0.36 0.39 0.44 0.52 0.56 0.59 0.64 0.67 0.68 0.70 0.72 0.73 0.73 0.72 0.72 0.72 0.73 0.74 0.68 0.59 0.61 0.61 0.54 0.53 0.49 0.53 0.63 0.84 0.97 1.07 1.04 0.99 1.09 1.12 1.07 1.10 1.18 1.18 1.18 1.22 1.26 1.32 1.36 1.35 1.34
0.47 0.43 0.37 0.33 0.31 0.29 0.29 0.29 0.30 0.27 0.25 0.25 0.24 0.23 0.23 0.24 0.25 0.28 0.29 0.29 0.29 0.30 0.29 0.27 0.29 0.28 0.28 0.30 0.27 0.26 0.27 0.27 0.28 0.29 0.30 0.31 0.32 0.32 0.33 0.34 0.34 0.37 0.42 0.49 0.53 0.54 0.58 0.61 0.65 0.68 0.70 0.72 0.73 0.72 0.73 0.75 0.75 0.75 0.73 0.69 0.66 0.58 0.54 0.56 0.58 0.59 0.65 0.76 0.88 1.02 0.92 1.02 1.04 1.10 1.07 1.01 0.96 1.08 1.17 1.18 1.19 1.22 1.26 1.30 1.31
Wind_Speed
7 7 6 6 6 6 6 6 6 6 7 7 7 7 8 8 9 9 9 10 10 11 12 12 12 13 13 13 13 13 14 14 15 15 15 14 15 16 16 17 17 17 18 18 18 18 18 17 16 16 15 14 14 13 13 12 12 12 12 11 11 11 10 10 10 10 9 8 8 7 7 7 7 7 7 7 7 6 6 5 5 4 4 4 3
7 7 6 6 6 6 6 6 6 6 7 8 8 8 8 9 9 10 10 11 11 12 12 12 13 13 14 14 14 14 14 14 15 15 16 15 15 16 17 17 17 18 18 18 18 19 19 18 17 16 16 15 14 14 14 13 13 13 12 12 11 11 10 10 10 10 10 9 8 7 7 7 7 8 7 7 7 7 6 6 6 5 5 5 4
7 7 6 6 6 6 6 6 6 7 7 8 8 9 9 9 10 11 11 12 12 13 13 13 13 13 14 14 15 15 15 15 15 15 16 16 15 16 17 17 18 18 18 19 19 19 19 18 18 17 16 16 15 15 14 14 14 13 13 12 12 11 11 11 10 10 10 9 9 8 8 7 8 8 8 8 7 7 7 6 6 6 6 5 5
6 5 5 5 5 5 6 6 6 7 7 8 8 9 10 10 11 11 12 13 13 13 14 14 14 14 15 15 16 16 15 15 16 16 16 16 16 16 17 18 18 18 18 19 19 19 18 18 18 18 17 17 16 16 15 15 14 14 13 13 12 12 12 11 11 11 10 10 9 8 8 8 8 8 8 8 8 8 7 7 7 7 7 6 6
5 5 5 5 5 5 6 6 6 7 8 8 9 9 10 11 11 12 12 13 13 14 14 14 15 15 15 16 16 16 17 16 16 17 17 17 17 18 18 18 19 19 19 19 19 18 18 18 18 18 18 18 17 16 16 15 15 15 14 13 13 12 12 12 11 11 11 10 9 9 8 8 8 8 9 9 8 8 8 8 8 8 7 7 6
5 5 5 4 5 5 5 6 6 7 8 9 9 10 10 11 11 12 13 13 14 14 15 15 15 15 16 16 16 17 17 17 17 17 17 18 19 19 19 19 19 19 19 19 19 18 18 18 18 18 18 18 18 17 17 16 16 15 15 14 14 13 13 12 12 11 11 10 9 9 9 9 9 8 9 9 9 8 9 8 8 8 8 8 7
5 5 4 4 5 5 5 6 7 8 8 9 10 10 10 11 12 13 13 14 14 15 15 15 16 16 16 16 17 17 18 18 18 18 18 18 19 19 19 19 19 19 19 19 19 19 18 19 19 19 19 18 18 18 17 17 16 16 15 15 14 14 14 13 12 12 12 11 10 10 9 9 9 9 9 9 9 9 9 9 9 9 9 8 8
5 5 4 5 5 5 6 6 7 8 9 9 10 10 11 12 12 13 14 14 15 15 16 16 16 16 17 17 17 18 18 18 19 19 19 19 19 20 20 20 20 19 19 19 19 19 19 19 19 20 20 19 19 19 19 18 17 17 16 16 15 15 14 14 13 13 12 11 11 10 10 9 9 9 10 10 10 9 9 10 10 10 9 9 9
5 5 5 5 5 6 6 7 8 8 9 10 10 11 11 12 13 14 14 15 15 16 16 16 16 17 17 18 18 18 19 19 19 19 20 20 20 20 20 19 19 20 19 19 19 19 19 18 19 20 20 20 20 20 20 19 19 18 18 17 17 16 15 14 14 13 13 12 12 11 10 10 10 10 10 10 10 10 10 11 11 10 10 10 9
5 5 5 6 6 6 7 8 8 9 10 10 11 11 12 13 14 14 15 15 16 16 16 16 17 17 18 18 18 19 19 19 19 19 19 20 20 20 20 20 20 20 20 20 20 19 19 19 19 20 21 21 21 21 21 20 20 19 19 18 18 17 16 15 14 14 14 13 13 12 11 11 11 11 11 11 11 11 11 11 11 11 11 11 10
5 5 6 6 7 7 8 9 9 10 10 11 11 12 13 14 14 15 15 15 16 16 16 16 17 17 18 18 19 18 18 19 19 19 19 19 20 19 19 20 20 20 19 19 19 19 19 19 19 19 20 21 22 22 22 21 21 21 20 19 19 18 17 17 15 15 15 14 14 13 13 12 12 12 11 11 11 11 12 12 12 12 11 12 11
5 5 6 7 7 8 8 9 10 10 11 11 12 13 14 14 14 15 15 15 15 16 16 16 17 17 17 18 18 18 18 18 18 18 18 19 19 19 19 19 19 19 19 19 19 19 19 19 19 19 20 21 22 23 23 22 22 22 22 21 20 19 18 18 17 16 16 15 15 15 14 14 13 13 12 12 12 12 12 12 13 12 12 12 12
5 6 6 7 8 8 9 9 10 11 11 12 13 13 14 14 14 14 15 15 15 16 16 16 17 17 17 18 18 18 18 18 17 17 18 18 19 19 19 19 20 20 20 20 20 19 19 19 20 20 20 20 21 22 23 23 23 22 22 22 22 21 20 19 18 17 17 17 16 16 15 15 15 14 13 13 13 13 13 13 13 13 13 13 13
5 6 7 7 8 8 9 10 10 11 11 12 13 13 13 14 14 14 15 15 15 15 16 16 16 17 18 18 18 17 17 16 16 17 18 19 19 19 19 19 19 20 20 20 19 19 19 20 20 20 20 20 21 21 22 23 23 23 23 22 22 22 22 21 20 19 18 18 18 17 17 16 16 15 14 14 14 13 14 14 14 14 14 14 14
6 7 7 8 8 9 9 10 11 11 12 12 12 13 13 14 14 15 15 15 15 16 16 16 17 18 18 17 17 17 17 15 16 18 18 18 18 18 19 19 19 20 20 20 20 19 19 20 20 20 20 21 20 20 21 22 23 24 24 23 23 23 23 23 22 21 20 19 19 19 18 18 17 17 16 15 15 14 15 15 14 15 15 15 14
7 8 8 8 9 9 10 11 11 12 12 12 12 13 13 14 14 15 16 16 16 16 16 16 17 17 17 17 17 17 16 16 18 20 18 17 18 18 18 18 19 19 19 20 20 20 20 20 20 20 20 21 21 20 21 22 23 24 24 24 24 24 24 24 23 23 21 21 21 20 19 19 19 18 17 16 16 15 15 16 15 15 15 16 15
8 8 8 9 9 10 10 11 11 11 12 12 12 13 13 14 15 15 16 16 17 17 17 17 17 17 17 17 17 16 17 18 20 19 18 18 19 19 18 19 19 19 19 19 20 20 20 20 20 21 21 21 21 21 22 22 22 23 24 25 25 25 25 25 24 24 23 22 22 21 21 20 20 20 19 18 17 17 16 16 16 16 16 16 16
7 8 8 9 9 10 10 10 11 11 11 12 12 13 14 14 15 16 16 17 17 18 18 18 18 17 17 18 17 18 19 20 19 19 19 20 19 19 19 19 19 19 19 20 20 20 20 20 20 20 21 21 21 21 21 22 22 22 23 24 25 26 25 25 25 25 25 24 23 23 22 22 22 21 20 19 19 18 18 18 17 17 17 17 17
7 8 8 9 9 10 10 11 11 11 12 12 13 14 15 15 16 17 17 17 18 18 18 18 18 18 18 18 19 19 20 20 20 20 20 20 20 20 20 20 20 20 20 20 20 20 20 20 20 20 21 21 21 21 21 22 22 22 23 24 25 26 26 26 26 26 26 25 25 24 24 23 23 22 22 21 21 20 19 19 18 18 18 18 18
8 8 8 9 10 10 11 11 11 12 13 13 14 15 16 16 17 17 18 18 18 18 19 19 19 19 20 20 20 20 20 21 21 21 20 21 21 21 21 21 21 21 21 21 21 21 21 21 21 21 20 20 21 21 21 22 22 22 23 24 24 25 26 26 26 26 26 26 26 26 25 25 24 24 23 22 22 21 21 20 20 19 19 19 19
8 8 9 9 10 10 11 11 12 13 14 14 15 16 17 17 18 18 18 19 19 19 19 20 20 20 21 21 21 21 22 22 22 22 22 22 22 22 22 23 22 22 22 22 22 21 21 21 21 21 20 20 20 21 21 22 22 23 23 24 24 25 26 27 27 27 27 27 27 27 27 27 26 25 25 24 23 23 22 22 21 21 20 20 20
8 8 9 10 10 11 11 12 12 13 14 14 15 16 17 18 18 19 19 20 20 20 20 21 21 21 21 22 22 22 23 23 23 24 24 24 24 24 25 24 24 23 23 22 22 22 22 22 22 22 21 22 21 21 21 22 22 23 23 24 24 25 26 27 28 29 29 28 28 28 28 28 28 27 26 25 24 24 24 23 23 23 22 21 21
8 9 9 10 10 11 12 12 13 13 14 15 16 17 17 18 18 19 20 20 21 21 21 21 22 22 22 22 22 23 23 24 24 25 25 25 26 26 26 26 26 25 24 24 24 23 23 23 23 23 23 22 22 22 22 22 22 23 23 23 24 25 26 27 28 29 30 30 30 30 30 29 29 29 28 27 26 25 25 25 24 24 24 23 23
9 9 9 10 10 11 12 12 13 14 15 15 17 17 18 19 19 20 20 21 21 21 22 22 22 22 23 23 23 24 24 25 25 26 26 27 27 27 27 27 27 27 27 26 25 24 24 24 24 24 23 23 23 23 23 22 22 22 23 23 24 25 25 27 28 29 31 31 31 31 31 30 30 30 31 30 28 27 26 26 26 25 25 24 24
9 9 9 10 11 11 12 13 13 14 15 16 17 18 19 19 20 20 21 21 21 22 22 22 23 23 23 23 24 24 25 25 26 27 27 27 28 27 28 28 28 28 28 28 27 25 25 24 24 24 24 24 24 24 24 24 24 23 23 23 24 25 26 27 28 30 31 32 32 32 32 32 31 31 31 32 31 29 28 28 27 27 26 26 25
8 9 10 10 11 12 12 13 14 15 16 17 18 18 19 20 20 21 21 21 22 22 22 23 23 23 24 24 24 25 25 26 26 27 27 28 28 28 29 29 29 29 28 28 27 27 26 25 25 25 24 24 25 25 25 26 25 24 24 23 24 25 26 27 28 29 31 32 33 33 33 33 33 32 32 33 33 31 30 30 29 28 28 27 27
8 9 10 11 11 12 13 14 15 15 16 17 18 19 19 20 20 21 22 22 22 23 23 23 24 24 24 24 25 25 26 26 26 27 27 28 28 29 30 30 30 29 28 28 28 28 27 27 26 26 25 25 25 25 26 26 26 25 25 24 24 24 25 26 27 28 30 32 33 34 34 34 35 34 33 34 34 34 32 31 31 30 29 29 28
9 10 10 11 12 12 13 14 15 16 17 18 18 19 20 21 21 22 23 23 23 23 23 23 24 24 25 25 25 25 26 26 26 27 27 28 28 29 30 30 31 30 29 29 28 28 29 29 29 28 28 27 27 26 27 27 27 28 26 25 24 25 25 26 27 28 30 31 32 34 35 36 36 36 36 35 35 36 34 33 32 32 31 30 30
9 10 11 11 12 12 13 14 15 16 17 18 19 20 21 22 22 23 23 23 23 23 23 23 24 24 24 25 25 25 25 26 26 26 27 27 28 29 29 30 31 31 31 30 29 28 29 30 29 29 30 30 30 30 29 28 28 28 27 26 25 25 26 27 27 28 29 31 32 33 36 38 38 38 37 37 36 37 36 35 34 33 32 32 31
9 10 10 11 11 12 13 14 15 16 18 19 20 21 22 22 22 23 23 23 22 23 23 23 23 23 23 24 24 24 25 25 26 26 26 27 27 28 29 30 30 31 32 32 31 30 30 31 31 31 32 32 32 33 32 32 31 30 29 29 29 28 27 27 28 29 29 31 32 33 35 38 40 40 39 39 38 38 38 37 36 35 34 33 33
10 10 11 11 12 13 14 15 16 17 18 20 20 21 22 22 23 22 22 22 22 22 22 22 23 23 23 24 24 25 25 26 26 26 27 27 28 29 29 29 30 31 32 33 32 31 31 32 33 33 33 34 33 34 34 34 34 33 32 32 31 30 29 28 29 29 30 31 32 32 33 36 40 41 41 40 40 39 39 39 38 37 36 35 34
10 11 11 12 12 13 14 15 16 18 19 20 21 22 22 22 22 22 22 22 22 22 22 23 23 23 24 24 25 25 26 26 27 28 28 29 29 30 30 30 31 32 32 33 34 33 33 33 34 34 34 35 34 34 35 34 34 34 34 33 33 32 31 30 30 30 30 31 32 32 33 35 39 42 42 42 42 41 41 40 40 39 38 37 36
11 11 12 12 13 13 14 16 17 18 19 20 21 21 21 21 21 21 21 21 22 22 22 23 23 24 24 25 26 26 27 28 28 29 29 30 30 31 31 31 32 33 33 34 35 35 34 34 35 35 34 35 35 34 35 35 35 35 34 34 34 33 32 31 31 31 31 32 33 33 33 34 37 41 44 44 44 43 42 42 42 41 39 38 37
11 11 12 12 13 14 15 16 18 19 20 20 21 20 20 20 20 21 21 21 22 23 23 24 24 25 25 26 26 27 28 29 29 30 30 31 31 32 32 32 33 33 34 35 36 36 36 36 35 36 35 35 35 35 35 36 36 36 36 35 35 35 34 33 32 32 32 32 33 33 34 34 35 39 44 46 45 45 45 43 43 43 41 40 39
11 12 12 13 13 14 15 17 18 19 20 20 20 20 20 20 20 21 22 22 23 23 23 24 25 25 26 26 27 28 29 29 30 30 31 32 32 33 33 33 34 34 34 35 36 37 38 37 36 36 36 36 36 36 36 36 36 36 36 36 35 35 35 35 34 33 33 33 33 34 34 35 35 37 42 46 47 46 47 46 45 45 44 42 41
12 12 12 13 14 15 16 17 18 19 19 19 20 20 20 20 21 21 22 22 23 23 24 24 25 26 27 27 28 29 30 30 31 32 32 33 33 34 34 34 34 35 35 35 36 37 38 38 38 37 37 37 37 37 37 36 36 36 37 36 36 36 36 36 35 35 34 34 34 34 35 35 36 36 39 45 48 48 48 48 47 46 46 45 44
12 12 13 13 14 15 16 17 18 19 19 19 20 20 20 20 21 21 22 22 23 23 24 24 25 26 27 28 29 30 31 32 33 33 34 35 35 35 35 35 35 35 36 36 37 37 38 39 39 38 37 37 37 37 37 37 37 37 37 37 37 36 35 36 36 36 35 35 34 34 35 35 36 36 37 42 48 49 49 49 49 48 48 47 46
12 13 13 14 14 15 16 17 18 18 19 19 20 20 20 20 21 21 22 22 23 23 24 25 26 27 28 29 30 31 32 33 34 35 35 35 36 36 36 35 35 35 36 37 37 37 38 39 39 39 38 37 38 38 38 38 38 38 38 38 37 36 35 35 36 36 36 35 35 34 34 35 35 36 36 39 45 50 50 51 51 50 50 49 48
12 13 13 14 15 16 16 17 17 18 19 19 20 20 20 20 20 21 22 22 23 23 24 26 27 28 29 30 31 32 33 34 35 35 35 36 36 36 36 35 36 36 37 37 37 38 38 39 39 39 38 38 38 39 39 38 38 38 37 37 37 37 36 36 35 35 35 35 35 34 34 35 35 35 36 37 42 48 51 51 52 52 51 51 50
12 13 14 14 15 16 16 17 17 18 19 19 20 20 20 20 20 21 22 22 23 24 25 26 27 29 29 30 31 32 33 34 35 36 36 36 36 36 36 36 37 37 37 38 38 38 38 39 40 40 39 39 39 39 39 38 38 38 37 38 38 38 37 37 36 35 35 35 35 34 34 34 34 34 34 35 37 44 49 51 52 52 52 52 51
13 13 14 14 15 15 16 17 17 18 19 19 20 20 20 20 20 21 21 22 23 24 25 27 28 29 30 31 31 32 33 34 35 36 36 36 36 36 36 37 37 38 38 39 38 39 39 40 40 40 40 40 39 39 39 39 39 39 39 39 39 39 38 38 38 36 35 35 35 34 33 33 34 34 33 33 33 36 43 48 51 52 53 53 53
13 13 13 14 14 15 16 17 18 19 19 19 20 20 20 20 20 20 21 22 23 24 25 27 28 29 30 30 30 31 32 34 35 35 35 35 35 36 37 38 38 38 39 39 39 39 40 40 41 41 41 41 40 40 40 40 40 41 40 40 40 40 39 38 38 36 34 34 35 35 34 33 33 33 32 32 32 33 36 41 46 51 53 53 53
13 13 13 14 14 15 16 17 18 18 19 19 20 20 20 20 20 20 21 22 23 24 26 27 28 29 29 29 29 30 32 33 34 35 35 35 36 37 37 37 38 38 39 39 39 40 41 41 41 41 41 42 41 41 41 41 41 41 41 41 41 40 39 38 37 36 34 33 34 35 34 33 32 33 32 31 31 33 34 36 40 45 50 52 52
12 13 13 14 14 15 16 17 18 18 18 19 19 19 19 19 20 20 21 22 23 24 25 26 27 29 29 29 29 30 31 33 34 35 35 36 36 37 37 37 37 37 38 38 39 40 40 40 40 40 40 41 41 40 40 41 41 42 42 41 41 40 40 39 38 37 35 34 34 34 34 32 31 32 32 31 30 31 34 36 38 40 45 50 52
12 12 13 14 15 16 16 17 17 17 18 18 18 18 19 20 21 21 22 23 23 24 24 25 27 28 29 29 29 30 31 33 35 35 36 36 36 36 36 35 35 36 36 36 37 38 38 39 39 39 39 39 39 39 39 40 41 41 41 40 40 40 40 40 40 38 37 35 34 34 33 32 31 31 31 31 31 30 32 35 38 39 42 47 51
12 12 13 14 15 15 16 16 16 17 17 17 18 18 19 20 22 22 22 22 23 24 24 25 26 28 29 30 30 30 32 33 34 35 36 36 35 35 35 35 35 35 36 36 36 37 37 37 38 38 38 38 39 38 38 38 39 39 39 39 39 40 41 41 41 40 38 37 36 34 33 31 30 30 30 30 30 31 31 32 35 38 40 44 48
12 12 13 13 14 14 15 15 15 16 16 17 18 19 19 21 22 22 22 22 22 23 24 25 26 27 29 30 30 31 32 33 34 35 35 35 35 35 35 35 36 37 37 37 36 37 37 37 37 38 38 38 37 37 36 35 35 36 36 37 37 38 39 40 40 39 38 37 36 35 33 31 30 30 30 29 29 29 30 30 32 35 38 42 46
11 11 12 12 13 13 13 14 14 15 16 18 19 19 20 21 21 21 21 22 22 23 24 25 26 27 28 30 30 31 32 33 34 34 34 34 35 35 36 37 37 37 37 37 37 37 38 38 38 37 36 36 36 35 34 33 32 32 31 31 32 34 35 36 37 36 36 35 35 34 33 31 30 29 28 28 28 28 28 29 30 32 34 39 43
10 10 11 11 12 12 12 13 14 15 17 18 19 19 20 20 20 20 20 21 22 23 24 25 26 27 28 29 30 31 31 32 33 33 34 34 35 35 36 37 37 37 36 36 36 37 38 38 37 36 34 34 34 33 31 29 29 29 27 26 27 28 30 32 32 33 33 32 32 33 33 31 29 29 28 27 27 27 27 27 28 28 30 34 40
10 10 10 10 11 12 12 13 14 16 17 18 19 19 20 20 20 20 20 21 22 23 24 25 26 26 27 29 30 30 30 31 32 32 33 34 35 35 36 37 38 37 36 35 35 36 37 37 35 33 33 34 33 31 28 26 25 25 24 23 23 22 25 26 27 29 30 29 28 30 31 30 28 28 26 25 24 24 24 24 24 25 26 29 35
10 10 10 10 11 12 13 14 15 16 17 18 19 19 19 20 20 20 20 21 22 23 24 25 25 26 27 28 29 29 30 30 31 32 33 34 34 35 36 37 37 37 36 34 34 35 36 36 33 32 32 33 32 29 25 23 22 21 20 19 18 17 19 20 21 23 25 26 25 26 27 27 27 26 25 23 22 22 22 22 22 21 22 24 29
Wind_Direction
276 282 284 284 281 282 286 289 295 300 301 305 308 305 306 309 309 307 307 308 308 308 308 307 306 305 305 304 303 304 303 302 301 300 302 303 302 299 296 294 294 294 295 297 293 287 284 283 281 281 282 282 281 282 281 280 280 282 286 290 291 291 291 290 290 292 293 290 284 278 272 263 254 249 245 242 240 238 235 232 230 227 225 224 220
275 279 279 277 279 282 284 286 292 297 300 304 307 306 305 307 308 308 308 308 306 306 308 307 306 305 305 304 302 301 301 301 300 299 299 300 302 299 296 295 295 294 294 295 294 288 282 279 279 278 279 280 281 281 280 279 279 280 282 285 287 288 288 287 287 290 290 286 280 275 270 262 253 247 243 240 237 234 232 229 226 224 223 219 214
274 276 277 279 281 282 285 286 292 298 302 305 307 308 308 308 308 308 307 307 305 304 305 305 306 306 305 305 304 302 300 301 301 300 299 299 301 301 299 297 296 296 295 294 295 290 281 275 276 276 276 278 280 280 280 279 279 279 279 281 284 285 285 284 285 286 285 282 276 271 267 260 252 246 241 237 234 231 229 227 224 222 221 217 212
269 273 278 280 281 283 286 288 292 297 301 304 306 307 307 307 306 306 306 306 306 304 303 303 304 304 303 303 304 304 303 302 301 301 300 299 301 302 302 301 298 297 296 295 295 291 281 273 272 274 274 275 277 277 278 278 278 278 278 278 280 282 283 282 281 282 281 278 273 267 263 257 250 245 240 235 232 230 226 224 223 221 220 217 213
265 270 275 277 281 286 289 291 294 298 301 304 306 307 307 308 307 307 307 306 307 307 305 304 303 302 301 302 302 302 303 303 302 302 300 298 300 301 303 302 299 297 296 296 295 292 284 275 271 272 272 273 274 275 275 275 276 276 277 276 277 280 282 280 278 279 277 273 269 264 260 255 249 243 239 234 231 229 224 221 220 220 219 217 215
262 269 273 277 283 288 292 295 298 302 305 306 308 309 309 310 310 310 310 309 308 307 306 305 305 303 302 302 301 300 301 301 301 302 300 299 300 300 302 302 300 299 297 296 295 293 286 277 273 272 272 271 272 273 273 272 273 274 274 274 274 277 279 278 276 275 273 269 265 261 258 253 247 242 237 232 230 228 224 220 219 220 220 218 216
261 270 276 280 286 291 295 299 304 307 308 309 310 311 310 311 312 311 311 310 309 308 306 305 306 304 303 302 302 301 300 299 299 300 300 299 299 300 301 301 301 300 299 298 296 293 287 279 273 272 272 271 270 271 271 270 269 270 272 273 273 275 275 275 273 271 269 265 261 258 255 250 244 240 236 232 230 228 224 220 219 220 221 219 218
261 270 278 284 288 294 297 302 307 311 312 313 313 312 312 311 311 311 311 310 309 308 307 306 305 305 304 303 303 303 301 300 300 300 299 299 298 298 300 299 300 300 298 298 298 294 289 281 274 271 270 269 270 270 269 268 268 267 269 270 271 272 272 272 271 267 265 262 257 254 251 248 243 239 236 232 231 229 225 221 220 221 220 219 219
260 269 279 283 288 293 299 305 310 313 314 315 314 314 313 312 312 312 311 310 310 308 308 307 306 305 305 304 304 303 302 301 301 301 300 300 299 299 299 298 299 299 297 296 297 296 292 285 276 271 269 269 269 269 268 267 266 266 266 266 268 270 269 269 268 264 261 259 254 251 248 245 241 239 236 234 233 230 226 222 221 221 219 218 218
264 273 279 283 290 296 301 306 309 312 314 315 315 314 314 313 313 313 313 312 311 310 310 309 308 307 306 306 306 304 303 303 302 302 301 301 302 301 300 299 298 297 296 295 295 296 294 289 280 274 271 270 269 268 267 266 265 265 264 264 265 267 266 266 265 261 259 256 252 248 245 242 240 239 237 235 234 231 227 223 222 221 218 216 216
272 280 285 288 292 296 301 307 310 312 314 315 315 315 315 315 315 315 315 314 313 312 312 311 311 310 308 308 308 307 306 306 304 303 302 302 302 302 302 301 299 297 296 295 294 295 295 292 286 278 274 271 269 266 267 267 266 264 262 261 263 263 263 264 263 260 256 254 250 246 244 241 240 239 237 236 235 232 227 223 222 221 218 215 215
281 285 290 293 294 297 302 308 311 312 314 315 316 316 316 316 317 318 317 317 316 315 314 314 313 313 312 311 310 308 308 308 307 306 305 305 304 303 303 302 301 299 297 295 293 294 294 292 289 283 278 274 270 266 265 266 266 265 262 260 260 260 260 260 261 258 255 253 249 245 243 241 240 239 237 237 235 232 227 223 222 221 218 216 216
289 291 294 296 297 301 306 309 311 313 315 316 316 317 318 318 319 320 320 319 319 318 318 318 316 316 315 314 313 311 310 310 309 309 309 309 307 304 304 304 302 301 299 297 296 294 293 292 290 286 282 277 273 268 265 264 265 265 262 259 258 258 257 258 259 257 254 252 248 244 242 240 239 239 237 236 235 232 227 223 222 220 219 218 216
292 296 297 299 301 304 308 311 312 313 315 316 318 319 320 320 321 322 322 322 321 321 321 321 319 319 318 317 316 316 315 313 312 312 311 311 309 307 306 305 304 302 301 299 298 295 293 293 291 288 285 280 275 271 267 265 265 264 262 259 258 257 256 256 257 256 253 251 247 243 242 240 238 238 237 235 234 232 228 225 223 221 220 218 217
293 296 298 300 302 305 307 310 312 313 315 317 318 321 322 322 323 323 323 323 323 323 323 322 320 320 319 318 318 318 318 317 316 316 313 312 312 311 310 308 306 304 303 302 300 297 295 294 292 290 286 282 277 274 271 269 266 263 260 259 259 258 257 255 254 253 252 249 246 243 241 239 238 237 236 234 233 232 229 227 225 223 222 220 218
295 296 298 300 301 303 306 308 311 312 314 317 318 320 323 324 324 324 324 324 324 324 324 324 322 321 319 317 317 317 316 317 318 318 316 313 313 313 312 311 309 307 305 304 302 301 298 296 294 291 288 284 281 278 276 274 269 264 260 259 260 260 258 255 252 250 250 248 246 243 240 239 238 236 235 234 232 231 230 228 226 224 223 221 219
296 298 299 301 303 305 306 308 310 313 316 318 319 320 322 323 323 324 324 324 324 323 323 324 323 321 319 318 316 315 315 317 318 317 316 314 313 312 311 311 311 309 308 306 304 302 301 298 296 292 288 286 284 281 278 276 271 266 262 259 260 260 257 255 252 248 247 247 245 242 240 238 237 236 235 234 232 231 230 228 226 225 223 222 219
298 301 302 304 307 308 309 309 311 314 317 319 320 320 320 321 322 322 322 322 322 322 322 322 322 321 320 318 315 313 313 316 316 314 314 314 313 312 310 310 309 309 309 308 306 304 302 300 298 295 291 287 286 283 279 276 272 268 265 262 261 259 256 255 253 249 246 246 244 242 240 239 237 236 235 234 232 230 229 228 226 225 223 221 219
300 304 305 306 307 309 311 312 312 314 315 318 319 320 319 319 320 320 320 320 320 320 320 320 319 318 319 318 316 314 313 314 313 312 312 312 313 313 310 309 308 308 308 308 307 305 303 301 299 298 295 290 287 285 281 278 274 269 267 266 262 259 257 255 252 249 247 245 243 241 240 239 237 236 235 234 232 230 229 228 227 225 223 221 219
302 304 307 309 309 311 312 313 313 314 315 316 317 318 319 318 318 317 317 317 317 317 316 316 316 315 315 315 315 315 315 314 313 312 312 311 312 313 312 311 309 307 307 307 306 306 304 302 300 299 298 294 290 287 283 280 276 272 270 268 265 260 258 255 251 249 248 245 243 241 240 238 237 236 235 233 231 230 229 228 227 226 224 221 219
301 305 308 311 313 314 314 313 313 314 315 316 316 317 318 318 317 317 317 317 316 315 313 313 313 312 312 312 312 313 314 314 314 314 313 312 312 312 312 312 310 308 308 306 305 305 304 303 301 299 297 295 292 289 285 281 278 275 272 268 265 262 259 255 251 250 248 247 244 241 240 239 236 235 234 233 231 229 228 228 227 226 224 222 220
301 306 308 311 313 314 314 314 315 315 315 315 316 316 317 318 317 316 317 317 316 315 314 312 312 311 311 311 311 312 312 312 313 313 312 311 310 311 311 312 311 310 310 308 306 304 303 302 301 299 298 295 293 290 287 283 280 277 274 270 265 263 261 257 253 251 248 247 246 243 241 239 237 234 233 232 231 229 228 228 227 225 224 223 221
299 303 307 310 312 313 314 315 316 316 315 316 316 317 317 317 317 317 317 318 318 317 315 313 313 312 312 311 311 312 311 310 311 311 309 308 308 308 309 310 310 309 309 309 307 305 302 300 298 298 297 295 293 290 288 285 282 279 276 272 268 264 262 259 255 251 248 247 246 244 242 239 238 235 232 232 231 230 228 227 227 226 224 224 223
297 301 306 310 312 314 316 316 316 317 317 317 317 318 318 317 318 318 318 318 318 317 315 314 313 313 313 312 311 310 310 310 310 309 308 307 306 306 307 308 307 307 307 307 306 305 303 301 298 296 295 294 292 290 288 285 283 282 278 274 270 266 263 261 256 252 250 249 247 244 242 240 238 235 233 232 231 231 229 228 227 226 225 225 224
299 303 307 311 313 314 316 316 316 317 318 318 319 319 319 318 318 318 317 317 317 315 314 313 313 312 312 311 310 310 310 309 309 308 307 307 306 305 305 306 305 304 304 304 304 303 303 302 301 298 296 294 291 289 288 285 282 282 280 277 273 269 265 263 259 254 251 249 247 244 242 240 239 237 234 232 231 231 229 228 227 226 225 225 224
301 305 308 311 313 314 316 317 317 318 319 319 320 320 319 319 318 318 317 316 316 315 314 313 313 312 312 311 311 310 309 309 308 308 307 307 306 305 304 304 303 303 303 303 302 301 300 300 300 300 298 296 292 289 288 285 279 279 280 279 276 271 267 265 261 257 253 250 248 244 242 240 239 237 235 232 231 231 229 228 227 226 226 225 224
300 304 308 311 312 315 317 317 318 319 320 320 320 320 320 319 318 318 318 317 316 316 315 315 314 313 312 312 311 311 310 309 309 308 307 306 305 305 304 303 302 302 302 301 301 300 299 298 297 297 298 298 296 293 291 285 278 277 277 279 279 274 270 266 263 259 255 252 250 246 242 241 239 238 236 234 232 230 229 228 227 227 226 226 225
300 304 308 311 312 314 316 317 319 320 321 321 320 320 320 319 319 319 318 317 317 317 316 315 315 314 313 313 312 311 310 309 308 308 307 306 305 304 304 303 303 302 301 300 299 298 298 298 296 294 294 295 295 295 293 289 284 279 276 278 280 276 272 268 265 262 257 253 251 248 244 241 240 238 236 234 233 231 229 229 228 227 227 227 226
300 304 308 310 312 314 315 316 318 320 320 320 320 320 320 320 320 319 319 318 318 317 317 316 316 315 314 314 313 312 312 311 309 308 307 306 305 304 303 303 302 301 301 300 299 297 297 297 295 293 292 292 291 291 291 289 288 285 279 278 281 279 275 271 267 265 259 254 252 250 246 242 239 238 236 235 233 231 230 229 229 228 227 228 227
300 304 307 309 312 313 314 315 318 320 320 320 321 322 321 321 321 320 320 320 320 319 319 318 317 317 317 317 316 315 314 313 312 311 310 308 307 306 305 304 302 301 300 299 298 297 297 295 294 293 292 291 290 289 288 286 286 285 281 281 282 279 276 273 269 267 262 257 254 252 249 243 239 238 237 235 233 232 230 230 229 228 228 228 228
299 302 306 308 310 312 313 316 318 320 321 321 322 322 322 322 322 322 323 323 323 322 322 322 320 320 320 320 319 318 316 315 314 313 312 311 310 309 308 306 304 302 301 299 298 297 297 295 294 293 292 291 290 289 287 285 284 282 279 280 280 278 276 274 271 268 264 260 256 254 253 247 240 237 237 236 234 232 231 231 230 228 228 228 228
298 301 304 307 309 311 314 316 318 320 321 322 322 322 323 324 324 324 325 325 324 324 324 324 323 322 322 321 320 319 318 316 315 314 313 312 311 310 309 307 306 304 302 300 298 298 298 296 295 294 293 291 290 289 287 286 284 281 278 277 278 277 276 274 272 269 266 262 257 255 255 250 243 238 237 236 234 233 232 231 230 229 228 228 228
296 299 302 305 308 311 313 316 318 320 321 322 322 323 324 325 325 325 325 326 326 325 325 324 324 323 322 321 320 319 318 317 316 315 314 313 312 311 309 307 306 304 303 300 298 297 298 298 296 295 294 292 290 288 287 286 284 282 280 278 276 274 274 274 272 270 267 264 260 256 255 253 247 240 237 236 235 233 232 231 230 229 228 228 227
294 297 300 304 307 310 313 316 319 320 321 323 323 323 324 325 326 326 327 327 327 326 325 325 324 323 322 321 321 320 318 318 317 316 315 314 313 311 310 308 306 305 303 300 299 297 297 298 297 296 295 293 291 289 287 286 284 282 281 278 276 273 272 272 272 270 267 265 262 258 255 254 250 244 239 236 235 234 233 232 230 229 228 228 228
292 296 300 303 306 310 314 316 319 321 322 323 323 323 325 326 327 327 328 328 327 326 326 326 325 324 324 323 322 321 320 319 318 317 316 315 314 312 311 309 307 305 303 301 299 297 297 297 297 296 295 294 292 290 288 286 284 282 280 278 276 274 271 269 269 269 267 266 263 259 256 254 252 248 242 236 235 234 233 232 231 229 228 228 228
290 295 300 304 307 311 314 317 320 321 322 323 323 323 325 327 328 328 329 328 327 327 327 327 326 326 325 324 323 322 321 320 319 318 317 316 315 313 311 309 307 306 304 302 300 298 297 297 297 296 294 293 292 290 289 287 285 282 280 278 276 275 272 269 267 267 267 265 263 260 257 255 253 251 245 238 235 234 233 232 231 230 228 228 228
288 293 299 304 308 312 315 318 320 321 323 324 323 323 325 327 328 328 329 328 327 327 327 327 327 326 326 325 324 324 323 322 321 320 318 317 315 313 312 310 308 306 305 303 301 299 297 296 296 296 294 292 291 290 289 288 286 284 281 278 277 275 273 270 267 266 265 264 263 261 258 255 253 252 249 242 236 234 233 232 231 230 229 229 228
288 294 299 304 308 312 316 319 320 321 323 325 324 323 324 326 327 328 328 327 327 328 328 328 328 328 327 326 326 325 324 323 322 321 319 318 316 314 312 311 309 308 307 305 302 300 298 297 296 295 294 293 291 290 289 288 286 284 282 279 277 274 273 271 269 266 264 263 263 261 258 256 253 252 251 245 238 235 233 232 231 231 230 229 228
289 295 300 304 308 312 315 317 319 321 323 325 325 324 325 326 327 327 326 326 327 327 327 329 330 330 329 328 327 327 326 325 324 322 320 318 317 315 313 311 310 309 307 306 303 301 300 298 297 296 294 293 291 290 289 288 286 283 281 279 277 275 273 272 270 267 264 262 262 260 258 256 253 251 252 249 242 236 233 232 232 231 230 229 229
290 295 299 304 307 310 313 316 319 321 324 325 326 325 325 325 325 326 325 326 327 328 329 330 331 331 330 329 328 328 328 327 325 323 321 319 318 316 315 313 311 310 308 306 305 303 301 300 298 297 295 293 292 290 289 288 286 283 281 279 277 275 272 270 269 268 264 261 261 260 259 257 254 252 252 252 247 238 233 232 232 230 229 229 229
289 294 298 302 306 309 312 316 320 322 323 324 324 324 324 324 325 325 325 326 328 329 330 331 331 330 330 329 329 329 330 330 328 327 324 322 321 319 317 316 313 312 310 308 306 304 303 302 300 299 296 294 292 291 289 288 286 283 281 279 276 274 272 269 267 266 264 261 260 259 259 257 255 253 251 252 250 241 234 232 231 230 230 230 230
288 292 296 301 305 309 313 317 320 322 322 322 323 323 323 323 324 324 325 327 328 329 330 331 330 330 330 329 329 331 332 332 332 331 329 327 326 323 321 318 315 314 312 310 308 307 305 303 302 300 298 295 294 292 289 287 285 284 281 278 275 273 271 269 265 263 262 261 259 258 258 257 254 252 251 250 248 243 237 234 232 231 231 230 230
287 291 296 300 305 309 313 317 321 321 321 321 322 323 324 325 325 326 326 328 328 328 329 330 331 332 331 330 330 332 333 333 334 334 333 332 330 327 325 322 319 317 315 313 311 309 307 304 303 301 298 296 295 292 289 287 285 283 281 278 275 272 269 266 263 261 259 260 260 258 257 255 253 251 250 249 247 243 240 237 235 233 232 230 230
287 291 296 300 304 308 312 318 321 321 320 321 323 324 326 327 327 327 327 329 329 328 328 330 332 333 333 332 332 333 334 335 336 336 336 335 333 331 328 326 323 322 320 317 315 312 309 306 304 302 300 297 295 293 290 288 285 282 280 277 273 270 266 263 261 259 257 258 260 258 254 253 253 251 249 248 247 244 241 239 238 236 234 231 230
287 291 296 299 303 307 312 318 322 321 319 319 322 325 328 329 329 328 327 328 329 329 328 329 332 334 334 334 334 334 335 336 337 338 337 336 335 333 332 330 328 327 325 324 321 318 315 312 309 306 304 301 298 296 293 290 286 283 279 275 272 269 264 261 260 258 255 254 257 257 253 251 251 250 248 248 247 247 245 242 240 239 237 233 231
287 291 295 299 303 308 313 317 321 322 321 321 323 326 328 329 329 329 328 327 328 330 329 329 332 334 335 335 335 336 337 337 338 338 338 337 336 336 336 335 334 333 331 329 328 325 322 319 316 313 310 306 302 300 297 293 288 284 280 275 271 267 264 261 259 257 254 251 252 255 253 250 249 248 248 248 248 248 247 245 242 241 239 236 232
287 290 294 299 305 309 313 317 320 323 325 326 326 327 329 329 329 329 328 328 329 330 331 331 332 334 336 336 337 337 338 338 339 339 339 339 339 339 340 339 338 337 335 334 332 329 327 325 321 318 314 311 306 303 301 296 291 287 281 275 270 266 263 260 257 255 252 248 247 250 251 250 248 247 248 248 248 248 248 247 245 243 242 238 234
287 292 296 301 305 309 312 316 321 325 328 330 330 329 330 330 329 328 329 330 330 331 331 332 332 334 336 337 338 339 339 340 340 341 341 341 341 341 340 340 339 338 338 337 335 333 332 330 327 324 321 318 314 309 305 301 297 292 285 276 270 266 262 258 254 251 249 246 244 245 248 248 246 245 246 247 248 249 250 250 249 246 244 240 235
290 295 298 302 305 308 311 316 322 327 330 332 333 332 331 331 330 329 329 330 331 332 333 333 333 334 336 338 340 340 341 342 342 343 344 344 344 342 341 341 340 338 338 339 339 339 337 335 333 331 329 327 324 319 314 309 304 299 292 284 275 268 262 255 250 248 247 244 242 242 243 244 243 243 244 246 247 249 250 251 250 248 246 242 235
290 295 298 302 305 309 313 317 322 327 330 332 334 334 333 332 332 331 331 331 332 334 334 334 335 336 337 339 341 342 343 344 345 346 346 346 345 344 343 343 342 340 339 340 341 343 342 340 339 338 337 336 334 330 325 320 314 306 299 292 284 272 262 254 249 246 242 239 239 241 240 240 240 241 242 244 246 249 250 251 251 250 250 247 239
287 291 295 300 306 312 316 319 322 326 328 331 333 334 335 335 335 335 334 334 334 335 335 335 337 338 339 341 343 344 346 347 347 348 348 348 347 347 346 346 345 344 342 343 344 345 346 345 344 344 343 343 342 339 336 332 326 319 308 300 293 280 265 256 250 242 235 234 239 241 239 237 237 237 239 241 243 246 247 248 250 250 253 253 245